Flag for Ecuador Weather past 2 weeks in Quito, Ecuador

Now
52 °F

Passing clouds.


Feels Like: 49 °F
Forecast: 48 / 65 °F
Wind: 8 mph from Southwest

Location: Latacunga Airport

Current Time: Sep 21, 2014 at 12:02:09 AM

Latest Report: Sep 20, 2014 at 11:00 PM


Visibility: N/A

Pressure: 30.45 "Hg

Humidity: 94%

Dew point: 50 °F

Location of QuitoLocation

Historic Weather in Quito — Graph

°F

Quito temperature yesterday

Maximum temperature yesterday: 66 °F (at 1:00 PM)
Minimum temperature yesterday: 48 °F (at 2:00 AM)
Average temperature yesterday: 54 °F

Past Weeks' High & Low Weather Summary

 TemperatureHumidityPressure
High70 °F (Sep 17, 2:00 PM)100% (Sep 6, 12:00 AM)30.51 "Hg (Sep 6, 12:00 AM)
Low34 °F (Sep 6, 4:00 AM)40% (Sep 10, 2:00 PM)30.24 "Hg (Sep 11, 4:00 PM)
Average53 °F82%30.41 "Hg
* Reported Midnight between Sep 5 and Sep 6 — Sep 20 11:00 PM, Quito, Weather by CustomWeather, © 2014

Note: Actual official high and low records may vary slightly from our data, if they occured in-between our weather recording intervals... More about our weather records

Advertising

Quito weather history for previous 24 hours

 ConditionsComfort  
Time TempWeatherWind HumidityBarometerVisibility
11:00 PM
Sep 20
52 °FPassing clouds.8 mph94%30.45 "HgN/A
10:00 PM52 °FPassing clouds.8 mph94%30.45 "HgN/A
9:00 PM54 °FPassing clouds.8 mph88%30.45 "HgN/A
8:00 PM57 °FPassing clouds.5 mph72%30.39 "HgN/A
7:00 PM55 °FPassing clouds.3 mph88%30.36 "HgN/A
6:00 PM57 °FScattered showers. Broken clouds.2 mph82%30.33 "HgN/A
5:00 PM63 °FPartly sunny.3 mph64%30.30 "HgN/A
4:00 PM64 °FBroken clouds.6 mph56%30.30 "HgN/A
3:00 PM61 °FBroken clouds.5 mph72%30.33 "HgN/A
2:00 PM61 °FThundershowers. Broken clouds.8 mph59%30.39 "HgN/A
1:00 PM66 °FBroken clouds.3 mph52%30.39 "HgN/A
8:00 AM54 °FMore clouds than sun.1 mph94%30.48 "HgN/A
7:00 AM50 °FMore clouds than sun.3 mph100%30.45 "Hg5 mi
6:00 AM50 °FPassing clouds.2 mph100%30.42 "HgN/A
5:00 AM48 °FPassing clouds.2 mph100%30.39 "HgN/A
4:00 AM48 °FCool.55 mph100%30.36 "HgN/A
3:00 AM50 °FCool.50 mph100%30.39 "HgN/A
2:00 AM48 °FPassing clouds.5 mph100%30.42 "HgN/A
1:00 AM50 °FCool.37 mph100%30.42 "HgN/A
12:00 AM50 °FPassing clouds.2 mph100%30.45 "HgN/A
Weather by CustomWeather, © 2014

See weather overviewHow to use our weather pages